Find Yaogan 31 hao 02 zu 01 xing

NORAD ID: 47532 Int'l Des: 2021-007 Owner: ZLZB Country: CN Constellation: yaogan operational
LEO

Live-Position

3D-Globus wird geladen...

Über Yaogan 31 hao 02 zu 01 xing

Beschreibung wird geladen...

Nächste Überflüge

Passes for default location (London). Set your location on the main map for personalized predictions.

Höhenverlauf

Loading altitude history...

Zweizeiliger Elementsatz

1 47532U 21007A 26139.80116331 .00000036 00000-0 19442-3 0 9997
2 47532 63.4039 216.0680 0173464 0.4293 359.6851 13.45446305260419
Epoch: 19. Mai 2026 • Age: 7 hours

Aktueller Status

Höhe 1136.2 km
Geschwindigkeit 7.27 km/s
Subsatellitenpunkt -61.33°S, 164.8°W
Startdatum 29. Jan. 2021
Alter 5.3 years
Typ military

Technische Details

Klassifizierung Payload
Masse 500.00 kg
Trockenmasse 500.00 kg
Gesamtmasse 500.00 kg
Länge 0.50 m
Durchmesser 0.50 m
Spannweite 1.00 m
Form Box + 2 Pan
Hersteller DFHZ
Bus-Typ JB-8B
Phasenstatus In Orbit
Besitzer/Staat ZLZB/CN

Most Searched